2022/08/15 21:03, 15.94
2022/08/15 22:03, 15.46
2022/08/15 23:03, 15.91
2022/08/16 00:03, 14.87
2022/08/16 01:03, 6.41
2022/08/16 02:03, 0.59
2022/08/16 03:03, 0.59
2022/08/16 04:03, 0.59
2022/08/16 05:03, 0.59
2022/08/16 06:03, 0.59
2022/08/16 07:03, 0.59
2022/08/16 08:03, 0.58
2022/08/16 09:03, 0.59
2022/08/16 10:03, 2.24
2022/08/16 11:03, 17.36
2022/08/16 12:03, 22.34
2022/08/16 13:03, 22.53
2022/08/16 14:03, 22.61
2022/08/16 15:03, 22.42
2022/08/16 16:03, 21.57
2022/08/16 17:03, 21.55
2022/08/16 18:03, 21.20
2022/08/16 19:03, 21.64
2022/08/16 20:03, 20.90
2022/08/16 21:03, 17.34
2022/08/16 22:03, 17.47
2022/08/16 23:03, 15.49
2022/08/17 00:03, 15.01
2022/08/17 01:03, 3.90
2022/08/17 02:03, 0.59
2022/08/17 03:03, 0.59
2022/08/17 04:03, 0.59
2022/08/17 05:03, 0.59
2022/08/17 06:03, 0.59
2022/08/17 07:03, 0.59
2022/08/17 08:03, 0.59
2022/08/17 09:03, 0.59
2022/08/17 10:03, 2.14
2022/08/17 11:03, 17.63
2022/08/17 12:03, 21.94
2022/08/17 13:03, 22.33
2022/08/17 14:03, 21.94
2022/08/17 15:03, 20.94
2022/08/17 16:03, 20.83
2022/08/17 17:03, 21.24
2022/08/17 18:03, 21.60
2022/08/17 19:03, 21.55
2022/08/17 20:03, 20.85
2022/08/17 21:03, 17.86
2022/08/17 22:03, 16.69
2022/08/17 23:03, 18.51
2022/08/18 00:03, 14.99
2022/08/18 01:03, 3.01
2022/08/18 02:03, 0.59
2022/08/18 03:03, 0.59
2022/08/18 04:03, 0.59
2022/08/18 05:03, 0.59
2022/08/18 06:03, 0.59
2022/08/18 07:03, 0.59
2022/08/18 08:03, 0.59
2022/08/18 09:03, 0.59
2022/08/18 10:03, 1.44
2022/08/18 11:03, 17.67
2022/08/18 12:03, 21.93
2022/08/18 13:03, 22.32
2022/08/18 14:03, 21.98
2022/08/18 15:03, 21.69
2022/08/18 16:03, 20.86
2022/08/18 17:03, 21.16
2022/08/18 18:03, 21.94
2022/08/18 19:03, 21.15
2022/08/18 20:03, 21.54
2022/08/18 21:03, 20.37
2022/08/18 22:03, 20.35
2022/08/18 23:03, 16.17
2022/08/19 00:03, 14.85
2022/08/19 01:03, 2.22
2022/08/19 02:03, 0.59
2022/08/19 03:03, 0.59
2022/08/19 04:03, 0.59
2022/08/19 05:03, 0.59
2022/08/19 06:03, 0.59
2022/08/19 07:03, 0.59
2022/08/19 08:03, 0.59
2022/08/19 09:03, 0.59
2022/08/19 10:03, 0.98
2022/08/19 11:03, 17.55
2022/08/19 12:03, 22.42
2022/08/19 13:03, 21.94
2022/08/19 14:03, 22.41
2022/08/19 15:03, 21.94
2022/08/19 16:03, 21.36
2022/08/19 17:03, 21.86
2022/08/19 18:03, 22.33
2022/08/19 19:03, 21.58
2022/08/19 20:03, 21.08
2022/08/19 21:03, 21.19
2022/08/19 22:03, 20.39
2022/08/19 23:03, 20.88
2022/08/20 00:03, 15.33
2022/08/20 01:03, 1.75
2022/08/20 02:03, 0.59
2022/08/20 03:03, 0.58
2022/08/20 04:03, 0.59
2022/08/20 05:03, 0.59
2022/08/20 06:03, 0.59
2022/08/20 07:03, 0.59
2022/08/20 08:03, 0.59
2022/08/20 09:03, 0.59
2022/08/20 10:03, 0.88
2022/08/20 11:03, 14.91
2022/08/20 12:03, 19.49
2022/08/20 13:03, 21.55
2022/08/20 14:03, 21.55
2022/08/20 15:03, 22.33
2022/08/20 16:03, 21.54
2022/08/20 17:03, 21.07
2022/08/20 18:03, 21.55
2022/08/20 19:03, 20.87
2022/08/20 20:03, 15.34
2022/08/20 21:03, 16.24
2022/08/20 22:03, 15.43
2022/08/20 23:03, 15.37
2022/08/21 00:03, 15.34
2022/08/21 01:03, 1.26
2022/08/21 02:03, 0.59
2022/08/21 03:03, 0.59
2022/08/21 04:03, 0.59
2022/08/21 05:03, 0.59
2022/08/21 06:03, 0.59
2022/08/21 07:03, 0.59
2022/08/21 08:03, 0.59
2022/08/21 09:03, 0.59
2022/08/21 10:03, 0.59
2022/08/21 11:03, 14.46
2022/08/21 12:03, 15.34
2022/08/21 13:03, 15.86
2022/08/21 14:03, 21.60
2022/08/21 15:03, 21.97
2022/08/21 16:03, 22.31
2022/08/21 17:03, 21.94
2022/08/21 18:03, 22.32
2022/08/21 19:03, 21.94
2022/08/21 20:03, 21.55
2022/08/21 21:03, 20.68
2022/08/21 22:03, 20.58
2022/08/21 23:03, 19.91
2022/08/22 00:03, 15.34
2022/08/22 01:03, 1.66
2022/08/22 02:03, 0.59
2022/08/22 03:03, 0.59
2022/08/22 04:03, 0.59
2022/08/22 05:03, 0.59
2022/08/22 06:03, 0.59
2022/08/22 07:03, 0.59
2022/08/22 08:03, 0.59
2022/08/22 09:03, 0.59
2022/08/22 10:03, 0.59
2022/08/22 11:03, 14.86
2022/08/22 12:03, 22.32
2022/08/22 13:03, 22.33
2022/08/22 14:03, 22.44
2022/08/22 15:03, 22.33
2022/08/22 16:03, 22.42
2022/08/22 17:03, 22.33
2022/08/22 18:03, 22.32
2022/08/22 19:03, 22.32
2022/08/22 20:03, 21.55
2022/08/22 21:03, 20.00
2022/08/22 22:03, 18.44
2022/08/22 23:03, 15.40
2022/08/23 00:03, 14.86
2022/08/23 01:03, 0.88
2022/08/23 02:03, 0.59
2022/08/23 03:03, 0.59
2022/08/23 04:03, 0.59
2022/08/23 05:03, 0.59
2022/08/23 06:03, 0.59
2022/08/23 07:03, 0.59
2022/08/23 08:03, 0.59
2022/08/23 09:03, 0.59
2022/08/23 10:03, 0.59
2022/08/23 11:03, 16.10
2022/08/23 12:03, 21.84
2022/08/23 13:03, 22.33
2022/08/23 14:03, 22.33
2022/08/23 15:03, 22.33
2022/08/23 16:03, 22.33
2022/08/23 17:03, 22.42
2022/08/23 18:03, 22.29
2022/08/23 19:03, 21.93
2022/08/23 20:03, 21.25
2022/08/23 21:03, 18.36
2022/08/23 22:03, 17.30
2022/08/23 23:03, 15.37
2022/08/24 00:03, 14.85
2022/08/24 01:03, 0.69
2022/08/24 02:03, 0.59
2022/08/24 03:03, 0.59
2022/08/24 04:03, 0.59
2022/08/24 05:03, 0.59
2022/08/24 06:03, 0.59
2022/08/24 07:03, 0.59
2022/08/24 08:03, 0.59
2022/08/24 09:03, 0.58
2022/08/24 10:03, 0.59
2022/08/24 11:03, 15.14
2022/08/24 12:03, 16.11
2022/08/24 13:03, 22.33
2022/08/24 14:03, 22.60
2022/08/24 15:03, 21.05
2022/08/24 16:03, 21.15
2022/08/24 17:03, 20.96
2022/08/24 18:03, 21.94
2022/08/24 19:03, 21.55
2022/08/24 20:03, 21.35
2022/08/24 21:03, 20.57
2022/08/24 22:03, 21.05
2022/08/24 23:03, 20.58
2022/08/25 00:03, 14.86
2022/08/25 01:03, 0.59
2022/08/25 02:03, 0.59
2022/08/25 03:03, 0.59
2022/08/25 04:03, 0.59
2022/08/25 05:03, 0.59
2022/08/25 06:03, 0.59
2022/08/25 07:03, 0.59
2022/08/25 08:03, 0.59
2022/08/25 09:03, 0.59
2022/08/25 10:03, 0.59
2022/08/25 11:03, 11.85
2022/08/25 12:03, 14.79
2022/08/25 13:03, 14.51
2022/08/25 14:03, 15.69
2022/08/25 15:03, 15.34
2022/08/25 16:03, 15.02
2022/08/25 17:03, 15.18
2022/08/25 18:03, 14.89
2022/08/25 19:03, 15.34
2022/08/25 20:03, 20.76
2022/08/25 21:03, 15.34
2022/08/25 22:03, 20.15
2022/08/25 23:03, 15.64
2022/08/26 00:03, 14.91
2022/08/26 01:03, 0.59
2022/08/26 02:03, 0.59
2022/08/26 03:03, 0.58
2022/08/26 04:03, 0.59
2022/08/26 05:03, 0.59
2022/08/26 06:03, 0.59
2022/08/26 07:03, 0.59
2022/08/26 08:03, 0.59
2022/08/26 09:03, 0.59
2022/08/26 10:03, 0.59
2022/08/26 11:03, 16.22
2022/08/26 12:03, 16.70
2022/08/26 13:03, 22.64
2022/08/26 14:03, 22.83
2022/08/26 15:03, 22.32
2022/08/26 16:03, 22.32
2022/08/26 17:03, 21.55
2022/08/26 18:03, 21.55
2022/08/26 19:03, 22.28
2022/08/26 20:03, 21.44
2022/08/26 21:03, 16.23
2022/08/26 22:03, 16.34
2022/08/26 23:03, 15.62
2022/08/27 00:03, 14.86
2022/08/27 01:03, 0.59
2022/08/27 02:03, 0.59
2022/08/27 03:03, 0.59
2022/08/27 04:03, 0.59
2022/08/27 05:03, 0.59
2022/08/27 06:03, 0.59
2022/08/27 07:03, 0.59
2022/08/27 08:03, 0.59
2022/08/27 09:03, 0.59
2022/08/27 10:03, 0.59
2022/08/27 11:03, 14.51
2022/08/27 12:03, 21.98
2022/08/27 13:03, 22.51
2022/08/27 14:03, 22.45
2022/08/27 15:03, 22.33
2022/08/27 16:03, 21.14
2022/08/27 17:03, 21.06
2022/08/27 18:03, 22.26
2022/08/27 19:03, 21.94
2022/08/27 20:03, 21.49
2022/08/27 21:03, 18.27
2022/08/27 22:03, 16.38
2022/08/27 23:03, 19.05
2022/08/28 00:03, 15.05
2022/08/28 01:03, 0.59
2022/08/28 02:03, 0.59
2022/08/28 03:03, 0.59
2022/08/28 04:03, 0.59
2022/08/28 05:03, 0.59
2022/08/28 06:03, 0.59
2022/08/28 07:03, 0.59
2022/08/28 08:03, 0.59
2022/08/28 09:03, 0.59
2022/08/28 10:03, 0.59
2022/08/28 11:03, 14.53
2022/08/28 12:03, 20.72
2022/08/28 13:03, 22.54
2022/08/28 14:03, 22.04
2022/08/28 15:03, 22.25
2022/08/28 16:03, 21.95
2022/08/28 17:03, 21.77
2022/08/28 18:03, 22.32
2022/08/28 19:03, 21.64
2022/08/28 20:03, 21.19
2022/08/28 21:03, 20.76
2022/08/28 22:03, 20.06
2022/08/28 23:03, 18.84
2022/08/29 00:03, 15.33
2022/08/29 01:03, 0.59
2022/08/29 02:03, 0.59
2022/08/29 03:03, 0.59
2022/08/29 04:03, 0.59
2022/08/29 05:03, 0.59
2022/08/29 06:03, 0.59
2022/08/29 07:03, 0.59
2022/08/29 08:03, 0.59
2022/08/29 09:03, 0.59
2022/08/29 10:03, 0.59
2022/08/29 11:03, 15.33
2022/08/29 12:03, 21.94
2022/08/29 13:03, 22.33
2022/08/29 14:03, 22.33
2022/08/29 15:03, 22.33
2022/08/29 16:03, 22.34
2022/08/29 17:03, 21.94
2022/08/29 18:03, 21.55
2022/08/29 19:03, 19.51
2022/08/29 20:03, 15.44
2022/08/29 21:03, 15.34
2022/08/29 22:03, 20.03
2022/08/29 23:03, 17.67
2022/08/30 00:03, 14.85
2022/08/30 01:03, 0.59
2022/08/30 02:03, 0.59
2022/08/30 03:03, 0.59
2022/08/30 04:03, 0.59
2022/08/30 05:03, 0.59
2022/08/30 06:03, 0.59
2022/08/30 07:03, 0.59
2022/08/30 08:03, 0.59
2022/08/30 09:03, 0.59
2022/08/30 10:03, 0.59
2022/08/30 11:03, 15.73
2022/08/30 12:03, 16.94
2022/08/30 13:03, 16.47
2022/08/30 14:03, 16.86
2022/08/30 15:03, 20.98
2022/08/30 16:03, 20.93
2022/08/30 17:03, 21.05
2022/08/30 18:03, 21.94
2022/08/30 19:03, 22.33
2022/08/30 20:03, 21.90
2022/08/30 21:03, 20.57
2022/08/30 22:03, 15.61
2022/08/30 23:03, 15.34
2022/08/31 00:03, 14.96
2022/08/31 01:03, 0.59
2022/08/31 02:03, 0.59
2022/08/31 03:03, 0.59
2022/08/31 04:03, 0.59
2022/08/31 05:03, 0.59
2022/08/31 06:03, 0.59
2022/08/31 07:03, 0.59
2022/08/31 08:03, 0.59
2022/08/31 09:03, 0.59
2022/08/31 10:03, 0.59
2022/08/31 11:03, 15.03
2022/08/31 12:03, 22.22
2022/08/31 13:03, 20.96
2022/08/31 14:03, 22.62
2022/08/31 15:03, 21.55
2022/08/31 16:03, 22.63
2022/08/31 17:03, 22.65
2022/08/31 18:03, 22.66
2022/08/31 19:03, 22.33
2022/08/31 20:03, 21.55
2022/08/31 21:03, 16.61
2022/08/31 22:03, 15.42
2022/08/31 23:03, 15.87
2022/09/01 00:03, 17.42
2022/09/01 01:03, 0.59
2022/09/01 02:03, 0.59
2022/09/01 03:03, 0.59
2022/09/01 04:03, 0.59
2022/09/01 05:03, 0.59
2022/09/01 06:03, 0.59
2022/09/01 07:03, 0.59
2022/09/01 08:03, 0.58
2022/09/01 09:03, 0.59
2022/09/01 10:03, 0.59
2022/09/01 11:03, 16.83
2022/09/01 12:03, 22.34
2022/09/01 13:03, 22.48
2022/09/01 14:03, 22.33
2022/09/01 15:03, 22.33
2022/09/01 16:03, 22.33
2022/09/01 17:03, 21.36
2022/09/01 18:03, 22.33
2022/09/01 19:03, 21.94
2022/09/01 20:03, 21.42
2022/09/01 21:03, 16.58
2022/09/01 22:03, 15.73
2022/09/01 23:03, 15.33
2022/09/02 00:03, 16.90
2022/09/02 01:03, 0.59
2022/09/02 02:03, 0.59
2022/09/02 03:03, 0.59
2022/09/02 04:03, 0.59
2022/09/02 05:03, 0.59
2022/09/02 06:03, 0.59
2022/09/02 07:03, 0.59
2022/09/02 08:03, 0.59
2022/09/02 09:03, 0.59
2022/09/02 10:03, 0.59
2022/09/02 11:03, 16.98
2022/09/02 12:03, 21.55
2022/09/02 13:03, 22.29
2022/09/02 14:03, 21.94
2022/09/02 15:03, 21.75
2022/09/02 16:03, 22.31
2022/09/02 17:03, 22.32
2022/09/02 18:03, 21.95
2022/09/02 19:03, 21.61
2022/09/02 20:03, 20.01
2022/09/02 21:03, 19.47
2022/09/02 22:03, 19.27
2022/09/02 23:03, 15.73
2022/09/03 00:03, 11.74
2022/09/03 01:03, 0.59
2022/09/03 02:03, 0.59
2022/09/03 03:03, 0.59
2022/09/03 04:03, 0.59
2022/09/03 05:03, 0.59
2022/09/03 06:03, 0.59
2022/09/03 07:03, 0.59
2022/09/03 08:03, 0.59
2022/09/03 09:03, 0.59
2022/09/03 10:03, 0.59
2022/09/03 11:03, 8.64
2022/09/03 12:03, 14.59
2022/09/03 13:03, 14.80
2022/09/03 14:03, 23.00
2022/09/03 15:03, 22.88
2022/09/03 16:03, 21.94
2022/09/03 17:03, 22.32
2022/09/03 18:03, 21.94
2022/09/03 19:03, 21.55
2022/09/03 20:03, 21.65
2022/09/03 21:03, 20.08
2022/09/03 22:03, 15.81
2022/09/03 23:03, 16.72
2022/09/04 00:03, 16.49
2022/09/04 01:03, 0.59
2022/09/04 02:03, 0.59
2022/09/04 03:03, 0.59
2022/09/04 04:03, 0.59
2022/09/04 05:03, 0.59
2022/09/04 06:03, 0.59
2022/09/04 07:03, 0.59
2022/09/04 08:03, 0.59
2022/09/04 09:03, 0.59
2022/09/04 10:03, 0.59
2022/09/04 11:03, 15.73
2022/09/04 12:03, 16.80
2022/09/04 13:03, 20.43
2022/09/04 14:03, 23.10
2022/09/04 15:03, 23.03
2022/09/04 16:03, 22.91
2022/09/04 17:03, 23.11
2022/09/04 18:03, 23.06
2022/09/04 19:03, 22.76
2022/09/04 20:03, 22.30
2022/09/04 21:03, 20.35
2022/09/04 22:03, 15.58
2022/09/04 23:03, 15.38
2022/09/05 00:03, 16.51
2022/09/05 01:03, 0.59
2022/09/05 02:03, 0.59
2022/09/05 03:03, 0.59
2022/09/05 04:03, 0.59
2022/09/05 05:03, 0.59
2022/09/05 06:03, 0.59
2022/09/05 07:03, 0.59
2022/09/05 08:03, 0.59
2022/09/05 09:03, 0.59
2022/09/05 10:03, 0.59
2022/09/05 11:03, 19.45
2022/09/05 12:03, 22.68
2022/09/05 13:03, 23.24
2022/09/05 14:03, 23.10
2022/09/05 15:03, 23.00
2022/09/05 16:03, 23.00
2022/09/05 17:03, 22.77
2022/09/05 18:03, 22.63
2022/09/05 19:03, 22.33
2022/09/05 20:03, 21.94
2022/09/05 21:03, 20.00
2022/09/05 22:03, 15.98
2022/09/05 23:03, 15.34
2022/09/06 00:03, 15.86
2022/09/06 01:03, 0.59
2022/09/06 02:03, 0.59
2022/09/06 03:03, 0.59
2022/09/06 04:03, 0.59
2022/09/06 05:03, 0.59
2022/09/06 06:03, 0.59
2022/09/06 07:03, 0.59
2022/09/06 08:03, 0.59
2022/09/06 09:03, 0.59
2022/09/06 10:03, 0.59
2022/09/06 11:03, 16.40
2022/09/06 12:03, 22.33
2022/09/06 13:03, 22.70
2022/09/06 14:03, 22.72
2022/09/06 15:03, 22.46
2022/09/06 16:03, 22.33
2022/09/06 17:03, 22.31
2022/09/06 18:03, 22.00
2022/09/06 19:03, 21.88
2022/09/06 20:03, 21.29
2022/09/06 21:03, 18.61
2022/09/06 22:03, 17.68
2022/09/06 23:03, 15.37
2022/09/07 00:03, 15.02
2022/09/07 01:03, 0.59
2022/09/07 02:03, 0.59
2022/09/07 03:03, 0.59
2022/09/07 04:03, 0.59
2022/09/07 05:03, 0.59
2022/09/07 06:03, 0.59
2022/09/07 07:03, 0.59
2022/09/07 08:03, 0.59
2022/09/07 09:03, 0.58
2022/09/07 10:03, 0.59
2022/09/07 11:03, 16.22
2022/09/07 12:03, 21.87
2022/09/07 13:03, 21.75
2022/09/07 14:03, 21.67
2022/09/07 15:03, 21.16
2022/09/07 16:03, 21.35
2022/09/07 17:03, 21.55
2022/09/07 18:03, 21.94
2022/09/07 19:03, 21.94
2022/09/07 20:03, 21.45
2022/09/07 21:03, 18.84
2022/09/07 22:03, 18.00
2022/09/07 23:03, 15.35
2022/09/08 00:03, 13.69
2022/09/08 01:03, 0.59
2022/09/08 02:03, 0.59
2022/09/08 03:03, 0.59
2022/09/08 04:03, 0.59
2022/09/08 05:03, 0.59
2022/09/08 06:03, 0.59
2022/09/08 07:03, 0.59
2022/09/08 08:03, 0.59
2022/09/08 09:03, 0.59
2022/09/08 10:03, 0.59
2022/09/08 11:03, 15.72
2022/09/08 12:03, 21.83
2022/09/08 13:03, 21.67
2022/09/08 14:03, 21.55
2022/09/08 15:03, 21.09
2022/09/08 16:03, 20.90
2022/09/08 17:03, 20.67
2022/09/08 18:03, 21.69
2022/09/08 19:03, 22.31
2022/09/08 20:03, 21.41
2022/09/08 21:03, 19.83
2022/09/08 22:03, 18.84
2022/09/08 23:03, 15.44
2022/09/09 00:03, 11.46
2022/09/09 01:03, 0.59
2022/09/09 02:03, 0.59
2022/09/09 03:03, 0.59
2022/09/09 04:03, 0.59
2022/09/09 05:03, 0.59
2022/09/09 06:03, 0.59
2022/09/09 07:03, 0.59
2022/09/09 08:03, 0.59
2022/09/09 09:03, 0.59
2022/09/09 10:03, 0.59
2022/09/09 11:03, 12.23
2022/09/09 12:03, 20.75
2022/09/09 13:03, 22.36
2022/09/09 14:03, 22.62
2022/09/09 15:03, 22.33
2022/09/09 16:03, 21.95
2022/09/09 17:03, 22.32
2022/09/09 18:03, 21.95
2022/09/09 19:03, 21.32
2022/09/09 20:03, 21.34
2022/09/09 21:03, 18.41
2022/09/09 22:03, 15.68
2022/09/09 23:03, 15.28
2022/09/10 00:03, 11.42
2022/09/10 01:03, 0.59
2022/09/10 02:03, 0.59
2022/09/10 03:03, 0.59
2022/09/10 04:03, 0.59
2022/09/10 05:03, 0.59
2022/09/10 06:03, 0.59
2022/09/10 07:03, 0.59
2022/09/10 08:03, 0.59
2022/09/10 09:03, 0.59
2022/09/10 10:03, 0.59
2022/09/10 11:03, 14.44
2022/09/10 12:03, 22.15
2022/09/10 13:03, 22.15
2022/09/10 14:03, 21.95
2022/09/10 15:03, 21.94
2022/09/10 16:03, 20.44
2022/09/10 17:03, 21.55
2022/09/10 18:03, 22.17
2022/09/10 19:03, 22.32
2022/09/10 20:03, 20.59
2022/09/10 21:03, 20.10
2022/09/10 22:03, 17.93
2022/09/10 23:03, 15.26
2022/09/11 00:03, 8.65
2022/09/11 01:03, 0.59
2022/09/11 02:03, 0.59
2022/09/11 03:03, 0.59
2022/09/11 04:03, 0.59
2022/09/11 05:03, 0.59
2022/09/11 06:03, 0.59
2022/09/11 07:03, 0.59
2022/09/11 08:03, 0.59
2022/09/11 09:03, 0.59
2022/09/11 10:03, 0.59
2022/09/11 11:03, 6.60
2022/09/11 12:03, 14.49
2022/09/11 13:03, 16.18
2022/09/11 14:03, 17.67
2022/09/11 15:03, 21.65
2022/09/11 16:03, 21.66
2022/09/11 17:03, 22.32
2022/09/11 18:03, 20.91
2022/09/11 19:03, 21.06
2022/09/11 20:03, 20.70
2022/09/11 21:03, 15.59
2022/09/11 22:03, 15.71
2022/09/11 23:03, 15.33
2022/09/12 00:03, 7.12
2022/09/12 01:03, 0.59
2022/09/12 02:03, 0.59
2022/09/12 03:03, 0.59
2022/09/12 04:03, 0.59
2022/09/12 05:03, 0.59
2022/09/12 06:03, 0.59
2022/09/12 07:03, 0.59
2022/09/12 08:03, 0.59
2022/09/12 09:03, 0.59
2022/09/12 10:03, 0.59
2022/09/12 11:03, 6.41
2022/09/12 12:03, 13.86
2022/09/12 13:03, 14.60
2022/09/12 14:03, 16.92
2022/09/12 15:03, 17.05
2022/09/12 16:03, 16.51
2022/09/12 17:03, 16.84
2022/09/12 18:03, 20.63
2022/09/12 19:03, 19.94
2022/09/12 20:03, 20.95
2022/09/12 21:03, 15.36
2022/09/12 22:03, 14.92
2022/09/12 23:03, 15.92
2022/09/13 00:03, 2.04
2022/09/13 01:03, 0.59
2022/09/13 02:03, 0.59
2022/09/13 03:03, 0.59
2022/09/13 04:03, 0.59
2022/09/13 05:03, 0.59
2022/09/13 06:03, 0.59
2022/09/13 07:03, 0.59
2022/09/13 08:03, 0.59
2022/09/13 09:03, 0.59
2022/09/13 10:03, 0.59
2022/09/13 11:03, 7.81
2022/09/13 12:03, 16.21
2022/09/13 13:03, 14.63
2022/09/13 14:03, 16.15
2022/09/13 15:03, 20.19
2022/09/13 16:03, 21.31
2022/09/13 17:03, 21.61
2022/09/13 18:03, 21.56
2022/09/13 19:03, 21.95
2022/09/13 20:03, 21.41
2022/09/13 21:03, 16.15
2022/09/13 22:03, 15.93
2022/09/13 23:03, 15.34
2022/09/14 00:03, 8.25
2022/09/14 01:03, 0.59
2022/09/14 02:03, 0.59
2022/09/14 03:03, 0.59
2022/09/14 04:03, 0.59
2022/09/14 05:03, 0.59
2022/09/14 06:03, 0.59
2022/09/14 07:03, 0.58
2022/09/14 08:03, 0.59
2022/09/14 09:03, 0.59
2022/09/14 10:03, 0.59
2022/09/14 11:03, 10.83
2022/09/14 12:03, 19.23
2022/09/14 13:03, 21.26
2022/09/14 14:03, 22.71
2022/09/14 15:03, 22.27
2022/09/14 16:03, 22.62
2022/09/14 17:03, 23.01
2022/09/14 18:03, 22.33
2022/09/14 19:03, 22.32
2022/09/14 20:03, 21.36
2022/09/14 21:03, 17.78
2022/09/14 22:03, 15.85
2022/09/14 23:03, 15.34
2022/09/15 00:03, 6.41
2022/09/15 01:03, 0.59
2022/09/15 02:03, 0.59
2022/09/15 03:03, 0.59
2022/09/15 04:03, 0.59
2022/09/15 05:03, 0.59
2022/09/15 06:03, 0.59
2022/09/15 07:03, 0.59
2022/09/15 08:03, 0.59
2022/09/15 09:03, 0.59
2022/09/15 10:03, 0.59
2022/09/15 11:03, 9.97
2022/09/15 12:03, 17.22
2022/09/15 13:03, 22.90
2022/09/15 14:03, 23.01
2022/09/15 15:03, 22.97
2022/09/15 16:03, 22.72
2022/09/15 17:03, 22.62
2022/09/15 18:03, 22.91
2022/09/15 19:03, 22.33
2022/09/15 20:03, 22.33
2022/09/15 21:03, 21.55
2022/09/15 22:03, 20.88
2022/09/15 23:03, 15.69
2022/09/16 00:03, 5.25
2022/09/16 01:03, 0.59
2022/09/16 02:03, 0.59
2022/09/16 03:03, 0.59
2022/09/16 04:03, 0.59
2022/09/16 05:03, 0.59
2022/09/16 06:03, 0.59
2022/09/16 07:03, 0.59
2022/09/16 08:03, 0.59
2022/09/16 09:03, 0.59
2022/09/16 10:03, 0.59
2022/09/16 11:03, 5.57
2022/09/16 12:03, 15.34
2022/09/16 13:03, 20.15
2022/09/16 14:03, 16.04
2022/09/16 15:03, 20.20
2022/09/16 16:03, 20.04
2022/09/16 17:03, 16.29
2022/09/16 18:03, 20.37
2022/09/16 19:03, 21.35
2022/09/16 20:03, 21.55
2022/09/16 21:03, 21.03
2022/09/16 22:03, 15.76
2022/09/16 23:03, 16.50
2022/09/17 00:03, 2.43
2022/09/17 01:03, 0.59
2022/09/17 02:03, 0.59
2022/09/17 03:03, 0.59
2022/09/17 04:03, 0.59
2022/09/17 05:03, 0.59
2022/09/17 06:03, 0.59
2022/09/17 07:03, 0.59
2022/09/17 08:03, 0.59
2022/09/17 09:03, 0.59
2022/09/17 10:03, 0.59
2022/09/17 11:03, 7.09
2022/09/17 12:03, 16.42
2022/09/17 13:03, 22.33
2022/09/17 14:03, 22.37
2022/09/17 15:03, 22.43
2022/09/17 16:03, 22.33
2022/09/17 17:03, 22.33
2022/09/17 18:03, 22.32
2022/09/17 19:03, 21.94
2022/09/17 20:03, 21.21
2022/09/17 21:03, 20.25
2022/09/17 22:03, 19.35
2022/09/17 23:03, 15.43
2022/09/18 00:03, 3.59
2022/09/18 01:03, 0.59
2022/09/18 02:03, 0.59
2022/09/18 03:03, 0.59
2022/09/18 04:03, 0.59
2022/09/18 05:03, 0.59
2022/09/18 06:03, 0.59
2022/09/18 07:03, 0.59
2022/09/18 08:03, 0.59
2022/09/18 09:03, 0.59
2022/09/18 10:03, 0.59
2022/09/18 11:03, 6.12
2022/09/18 12:03, 14.56
2022/09/18 13:03, 22.43
2022/09/18 14:03, 22.58
2022/09/18 15:03, 22.38
2022/09/18 16:03, 22.62
2022/09/18 17:03, 21.06
2022/09/18 18:03, 22.32
2022/09/18 19:03, 22.32
2022/09/18 20:03, 21.17
2022/09/18 21:03, 21.54
2022/09/18 22:03, 20.68
2022/09/18 23:03, 15.17
2022/09/19 00:03, 1.17
2022/09/19 01:03, 0.59
2022/09/19 02:03, 0.59
2022/09/19 03:03, 0.59
2022/09/19 04:03, 0.59
2022/09/19 05:03, 0.59
2022/09/19 06:03, 0.59
2022/09/19 07:03, 0.59
2022/09/19 08:03, 0.59
2022/09/19 09:03, 0.59
2022/09/19 10:03, 0.59
2022/09/19 11:03, 4.22
2022/09/19 12:03, 17.66
2022/09/19 13:03, 22.96
2022/09/19 14:03, 22.66
2022/09/19 15:03, 22.72
2022/09/19 16:03, 22.56
2022/09/19 17:03, 22.62
2022/09/19 18:03, 22.62
2022/09/19 19:03, 22.46
2022/09/19 20:03, 21.65
2022/09/19 21:03, 17.89
2022/09/19 22:03, 15.72
2022/09/19 23:03, 15.34
2022/09/20 00:03, 2.62
2022/09/20 01:03, 0.59
2022/09/20 02:03, 0.59
2022/09/20 03:03, 0.59
2022/09/20 04:03, 0.59
2022/09/20 05:03, 0.59
2022/09/20 06:03, 0.59
2022/09/20 07:03, 0.59
2022/09/20 08:03, 0.59
2022/09/20 09:03, 0.59
2022/09/20 10:03, 0.59
2022/09/20 11:03, 7.19
2022/09/20 12:03, 16.16
2022/09/20 13:03, 22.42
2022/09/20 14:03, 22.15
2022/09/20 15:03, 22.32
2022/09/20 16:03, 21.65
2022/09/20 17:03, 22.33
2022/09/20 18:03, 22.33
2022/09/20 19:03, 22.16
2022/09/20 20:03, 21.48
2022/09/20 21:03, 16.84
2022/09/20 22:04, 16.00
2022/09/20 23:04, 15.34
2022/09/21 00:04, 2.24
2022/09/21 01:04, 0.59
2022/09/21 02:04, 0.59
2022/09/21 03:04, 0.59
2022/09/21 04:04, 0.59
2022/09/21 07:03, 0.59
2022/09/21 08:03, 0.59
2022/09/21 09:03, 0.59
2022/09/21 10:03, 0.59
2022/09/21 11:03, 3.87
2022/09/21 12:03, 16.02
2022/09/21 13:03, 15.18
2022/09/21 14:03, 16.59
2022/09/21 15:03, 16.64
2022/09/21 16:03, 22.33
2022/09/21 17:03, 22.33
2022/09/21 18:03, 22.19
2022/09/21 19:03, 22.33
2022/09/21 20:03, 21.05
2022/09/21 21:03, 16.85
2022/09/21 22:03, 15.60
2022/09/21 23:03, 14.97
2022/09/22 00:03, 0.88
2022/09/22 01:03, 0.59
2022/09/22 02:03, 0.59
2022/09/22 03:03, 0.59
2022/09/22 04:03, 0.59
2022/09/22 05:03, 0.59
2022/09/22 06:03, 0.59
2022/09/22 07:03, 0.59
2022/09/22 08:03, 0.59
2022/09/22 09:03, 0.59
2022/09/22 10:03, 0.59
2022/09/22 11:03, 7.58
2022/09/22 12:03, 19.29
2022/09/22 13:03, 23.45
2022/09/22 14:03, 22.57
2022/09/22 15:03, 23.98
2022/09/22 16:03, 21.98
2022/09/22 17:03, 23.49
2022/09/22 18:03, 23.49
2022/09/22 19:03, 22.59
2022/09/22 20:03, 22.35
2022/09/22 21:03, 17.67
2022/09/22 22:03, 15.73
2022/09/22 23:03, 15.30
2022/09/23 00:03, 1.26
2022/09/23 01:03, 0.59
2022/09/23 02:03, 0.59
2022/09/23 03:03, 0.59
2022/09/23 04:03, 0.59
2022/09/23 05:03, 0.59
2022/09/23 06:03, 0.59
2022/09/23 07:03, 0.59
2022/09/23 08:03, 0.59
2022/09/23 09:03, 0.59
2022/09/23 10:03, 0.59
2022/09/23 11:03, 9.90
2022/09/23 12:03, 21.61
2022/09/23 13:03, 22.32
2022/09/23 14:03, 21.88
2022/09/23 15:03, 20.56
2022/09/23 16:03, 22.70
2022/09/23 17:03, 23.09
2022/09/23 18:03, 22.80
2022/09/23 19:03, 22.63
2022/09/23 20:03, 22.33
2022/09/23 21:03, 20.87
2022/09/23 22:03, 19.77
2022/09/23 23:03, 15.22
2022/09/24 00:03, 0.59
2022/09/24 01:03, 0.59
2022/09/24 02:03, 0.59
2022/09/24 03:03, 0.59
2022/09/24 04:03, 0.59
2022/09/24 05:03, 0.59
2022/09/24 06:03, 0.59
2022/09/24 07:03, 0.59
2022/09/24 08:03, 0.59
2022/09/24 09:03, 0.59
2022/09/24 10:03, 0.59
2022/09/24 11:03, 6.02
2022/09/24 12:03, 22.57
2022/09/24 13:03, 19.96
2022/09/24 14:03, 22.26
2022/09/24 15:03, 16.39
2022/09/24 16:03, 19.14
2022/09/24 17:03, 17.73
2022/09/24 18:03, 21.05
2022/09/24 19:03, 20.62
2022/09/24 20:03, 19.28
2022/09/24 21:03, 20.70
2022/09/24 22:03, 15.34
2022/09/24 23:03, 13.11
2022/09/25 00:03, 0.59
2022/09/25 01:03, 0.59
2022/09/25 02:03, 0.59
2022/09/25 03:03, 0.59
2022/09/25 04:03, 0.59
2022/09/25 05:03, 0.59
2022/09/25 06:03, 0.59
2022/09/25 07:03, 0.59
2022/09/25 08:03, 0.59
2022/09/25 09:03, 0.59
2022/09/25 10:03, 0.59
2022/09/25 11:03, 0.88
2022/09/25 12:03, 14.50
2022/09/25 13:03, 16.17
2022/09/25 14:03, 14.50
2022/09/25 15:03, 16.06